Back to catalog

DELTA 1 DEB

AlivePO
NORAD 21452·DEBRIS·🇺🇸 United States

Launched Jun 12, 1975 from Vandenberg Space Force Base

Loading…

Next Passes (next 24 hours)

TLE

FreshSource: Space-Track

Epoch: Sep 14, 2026, 10:43 UTC

1 21452U 75052EL  26257.44694769  .00001947  00000-0  82755-2 0  9994
2 21452  99.7488 124.8484 0580284  88.8236  31.4650 12.39714095585877

Track DELTA 1 DEB in real time with AllMySat

Download on the App Store